Location: Central Falls
(41.8900°N, 71.3929°W)
Time: 03:24:29
(UTC+00:00)

Vanguard 2 Rocket - Pass Details

Date: 08 December 2023
Orbit: 555 x 3309 km, 32.9° (Epoch: 01 March)

Event Time Altitude Azimuth Distance (km) Brightness Sun altitude
Rises 20:55:38 0° 263° (W) 6,509 12.6 2.1°
Reaches altitude 10° 20:59:35 10° 261° (W) 5,745 12.4 1.5°
Maximum altitude 21:18:18 64° 186° (S) 3,542 10.1 -1.5°
Drops below altitude 10° 21:36:39 10° 111° (ESE) 5,647 10.5 -4.5°
Sets 21:40:30 0° 108° (ESE) 6,397 10.8 -5.1°
